[[{"header":{"parameterUnit":"m.s-1","parameterCategory":1,"la1":30.2992,"la2":30.254,"lo1":-89.0895,"lo2":-89.0443,"dy":0.0025,"dx":0.0025,"nx":19,"ny":19,"refTime":"2026-03-08T03:00:00:Z","depth":0,"parameterNumber":2,"parameterNumberName":"U-component_of_WINDS"},"data":[0,0,0,0.6927,0.6928,0.697,0.697,0.7029,0.7029,0,0,0,0,0,0,0,0,0,0,0,0.6915,0.6915,0.6927,0.6928,0.697,0.697,0.7029,0.7029,0,0,0,0,0,0,0,0,0,0,0,0.6915,0.6915,0.6916,0.6928,0.697,0.697,0.7028,0.6995,0,0,0,0,0,0,0,0,0,0,0.6954,0.6943,0.6915,0.6916,0.6928,0.697,0.697,0.6994,0.6998,0.7011,0,0.7021,0,0.7026,0.7033,0.7033,0,0,0,0.6928,0.694,0.6951,0.6916,0.6929,0.697,0.6951,0.6996,0.7,0.7016,0.7022,0.7024,0.7027,0.7034,0.7034,0.7106,0.7106,0,0,0.6926,0.6923,0.6948,0.6953,0.6945,0.695,0.6952,0.6998,0.7006,0.7022,0.7025,0.7028,0.7034,0.7034,0.7106,0.7106,0,0,0,0.6919,0.6922,0.6931,0.6951,0.6958,0.6951,0.6954,0.7003,0.7007,0.7026,0.7028,0.7034,0.7035,0.7105,0.7106,0.7121,0,0,0,0.6917,0.6918,0.693,0.6929,0.6957,0.6981,0.6958,0.7004,0.7009,0.7028,0.7034,0.7036,0.7105,0.7106,0.7119,0.7128,0,0,0,0.6912,0.6917,0.6923,0.6929,0.6947,0.698,0.6986,0.7005,0.7011,0.7033,0.7036,0.7105,0.7106,0.7118,0.7126,0.7147,0,0,0,0.6906,0.6936,0.6923,0.6958,0.6947,0.6988,0.6986,0.7017,0.7038,0.7035,0.7105,0.7106,0.7118,0.7125,0.7146,0.7165,0.7172,0,0,0.6942,0.694,0.6961,0.6951,0.6994,0.6982,0.7028,0.705,0.7055,0.7089,0.7091,0.712,0.7126,0.7147,0.7212,0.7218,0,0,0,0.6971,0.6986,0.6998,0.7018,0.7035,0.7051,0.7066,0.7074,0.7103,0.7071,0.7132,0.7136,0.7149,0.7158,0.7163,0.7174,0.711,0.711,0.711,0.702,0.7024,0.7059,0.7068,0.7087,0.7103,0.7119,0.7134,0.7132,0.7147,0.7158,0.7196,0.7207,0.7211,0.7223,0.7167,0.7167,0.7167,0.7167,0.7075,0.7097,0.7094,0.7127,0.7131,0.716,0.7176,0.7175,0.7203,0.7189,0.72,0.7185,0.7217,0.7228,0.7168,0.7168,0.7168,0.7168,0.7168,0.7108,0.7119,0.7128,0.7157,0.718,0.7189,0.7216,0.7219,0.7223,0.7234,0.7246,0.7246,0.7247,0.7239,0.7239,0.7239,0.724,0.724,0.724,0.7139,0.7148,0.717,0.7191,0.7204,0.7223,0.724,0.7254,0.7271,0.7271,0.7271,0.727,0.7219,0.7206,0.7242,0.7242,0.7241,0.7241,0.7241,0.7194,0.7182,0.7215,0.7229,0.7255,0.7278,0.7281,0.731,0.7323,0.7336,0.7332,0.7293,0.7292,0.7288,0.7278,0.733,0.733,0.733,0.733,0.7223,0.7222,0.7257,0.7279,0.7301,0.7308,0.7348,0.7362,0.7375,0.7383,0.7376,0.7362,0.7358,0.7359,0.7354,0.7345,0.7413,0.7413,0.7413,0.7258,0.7259,0.7291,0.7302,0.7323,0.7341,0.7379,0.7406,0.7418,0.7416,0.739,0.7387,0.7365,0.7357,0.7355,0.7347,0.733,0,0]},{"header":{"parameterUnit":"m.s-1","parameterCategory":1,"la1":30.2992,"la2":30.254,"lo1":-89.0895,"lo2":-89.0443,"dy":0.0025,"dx":0.0025,"nx":19,"ny":19,"refTime":"2026-03-08T03:00:00:Z","depth":0,"parameterNumber":3,"parameterNumberName":"V-component_of_WINDS"},"data":[0,0,0,1.1498,1.1498,1.1526,1.1526,1.1562,1.1563,0,0,0,0,0,0,0,0,0,0,0,1.149,1.149,1.1498,1.1498,1.1526,1.1526,1.1562,1.1563,0,0,0,0,0,0,0,0,0,0,0,1.1489,1.149,1.149,1.1498,1.1526,1.1526,1.1562,1.1541,0,0,0,0,0,0,0,0,0,0,1.1514,1.1506,1.149,1.149,1.1499,1.1526,1.1526,1.154,1.1542,1.155,0,1.1557,0,1.156,1.1565,1.1565,0,0,0,1.1498,1.1505,1.1512,1.149,1.1499,1.1526,1.1513,1.1541,1.1544,1.1553,1.1557,1.1558,1.1561,1.1565,1.1565,1.1611,1.1611,0,0,1.1496,1.1495,1.151,1.1514,1.1509,1.1513,1.1514,1.1543,1.1547,1.1557,1.1559,1.1561,1.1566,1.1566,1.1611,1.1611,0,0,0,1.1492,1.1493,1.15,1.1512,1.1517,1.1513,1.1515,1.1546,1.1548,1.156,1.1562,1.1566,1.1566,1.1611,1.1611,1.1621,0,0,0,1.1491,1.1491,1.15,1.1499,1.1517,1.1532,1.1518,1.1546,1.155,1.1562,1.1566,1.1567,1.161,1.1611,1.162,1.1626,0,0,0,1.1488,1.1491,1.1495,1.1498,1.151,1.1531,1.1535,1.1547,1.1551,1.1565,1.1567,1.161,1.1611,1.1619,1.1625,1.1638,0,0,0,1.1483,1.1502,1.1495,1.1517,1.151,1.1537,1.1535,1.1555,1.1569,1.1566,1.161,1.1611,1.1619,1.1624,1.1638,1.165,1.1655,0,0,1.1506,1.1505,1.1518,1.1512,1.1541,1.1533,1.1563,1.1577,1.1579,1.16,1.1602,1.162,1.1625,1.1638,1.1681,1.1685,0,0,0,1.1525,1.1535,1.1542,1.1556,1.1567,1.1578,1.1587,1.1592,1.1611,1.159,1.1629,1.1631,1.1639,1.1645,1.1648,1.1656,1.1613,1.1613,1.1613,1.1555,1.1558,1.1581,1.1588,1.1601,1.1611,1.1622,1.1631,1.1629,1.1639,1.1645,1.1671,1.1678,1.168,1.1688,1.1651,1.1651,1.1651,1.1651,1.159,1.1604,1.1604,1.1625,1.1629,1.1647,1.1658,1.1657,1.1675,1.1666,1.1673,1.1663,1.1684,1.1691,1.1652,1.1652,1.1652,1.1652,1.1652,1.161,1.1618,1.1624,1.1645,1.166,1.1666,1.1684,1.1686,1.1689,1.1696,1.1704,1.1703,1.1704,1.1699,1.1699,1.1699,1.1699,1.17,1.17,1.1629,1.1636,1.1651,1.1666,1.1675,1.1688,1.1699,1.1709,1.172,1.172,1.172,1.1719,1.1685,1.1677,1.1701,1.1701,1.1701,1.17,1.17,1.1664,1.1657,1.168,1.1689,1.1708,1.1724,1.1726,1.1746,1.1754,1.1763,1.176,1.1735,1.1733,1.1731,1.1724,1.1759,1.1759,1.1759,1.1759,1.1682,1.1682,1.1707,1.1722,1.1737,1.1743,1.177,1.1779,1.1788,1.1793,1.1789,1.178,1.1777,1.1778,1.1774,1.1768,1.1813,1.1813,1.1813,1.1705,1.1706,1.1728,1.1737,1.1752,1.1765,1.179,1.1809,1.1817,1.1815,1.1798,1.1796,1.1782,1.1777,1.1775,1.1769,1.1758,0,0]}]]